Location: Lussas
(44.6119°N, 4.4726°E)
Time: 05:48:25
(UTC+00:00)

USA 305 - Pass Details

Date: 26 November 2020
Orbit: 566 x 578 km, 54.0° (Epoch: 11 January)

Event Time Altitude Azimuth Distance (km) Brightness Sun altitude
Exits shadow 05:34:40 17° 320° (NW) 1,498 4.5 -13.7°
Maximum altitude 05:36:41 23° 358° (N) 1,248 4.4 -13.4°
Drops below altitude 10° 05:40:10 10° 52° (NE) 1,895 6.0 -12.8°
Sets 05:42:49 0° 67° (ENE) 2,795 7.3 -12.3°
